Index of /stuservices/career-center/full-time-job-openings

[ICO]NameLast modifiedSizeDescription

[DIR]Parent Directory  -  
[   ]#17 Comm Bank Rep 10.03.2018 EP.pdf07-Dec-2018 11:21 353K 
[   ]#18 Personal Banker II EP.pdf01-Mar-2018 09:52 297K 
[   ]ACS Food Service Manager Ellsworth.pdf22-Nov-2016 13:41 255K 
[   ]Aarons CSR.pdf22-Nov-2016 13:41 163K 
[   ]Aarons Delivery Driver.pdf22-Nov-2016 13:41 424K 
[   ]Aarons Manager Trainee.pdf22-Nov-2016 13:41 206K 
[   ]Administrative Customer Service Associate.pdf17-Jan-2019 15:15 132K 
[   ]Agco Technician .pdf22-Nov-2016 13:41 163K 
[   ]Aircraft Mechanic.pdf22-Nov-2016 13:41 208K 
[   ]Aviands position.pdf22-Nov-2016 13:41 179K 
[   ]Barton Co Learning Academy.pdf22-Nov-2016 13:41 55K 
[   ]BartonFSAtemp.doc22-Nov-2016 13:41 27K 
[   ]Bioproduction Operator.pdf17-Jan-2019 15:15 108K 
[   ]Boardwalk Pipeline Partners.pdf17-Jan-2019 15:15 224K 
[   ]Branch Manager.pdf19-Feb-2018 09:02 109K 
[   ]CUNA Operations Generalist II.pdf22-Nov-2016 13:41 107K 
[   ]Citizens Medical Center.pdf22-Nov-2016 13:41 589K 
[   ]City of Salina 09-22-2017 .pdf26-Sep-2017 13:59 132K 
[   ]Classified Position Application USD 431.pdf24-May-2017 10:14 188K 
[   ]CloudCo Hlth Ctr.pdf22-Nov-2016 13:41 165K 
[   ]Combined Insurance Sales Agent.pdf22-Nov-2016 13:41 22K 
[   ]Combined Insurance Sales Agent Pt2.pdf22-Nov-2016 13:41 22K 
[   ]Community Development Coordinator Rice County.pdf22-Nov-2016 13:41 26K 
[   ]Corrosion Specialist Kansas Gas Service.pdf18-Jan-2018 11:20 197K 
[   ]Craig HomeCare.pdf23-May-2018 12:53 317K 
[   ]Credit Admin ad 6-2015.pdf22-Nov-2016 13:41 82K 
[   ]DCCCCA Nursing.pdf22-Nov-2016 13:41 274K 
[   ]Detention officer.pdf01-Dec-2016 10:27 350K 
[   ]Director of Dining Services.pdf22-Nov-2016 13:41 99K 
[   ]DollarTree.pdf22-Nov-2016 13:41 220K 
[   ]ECMC job list March 15.pdf22-Nov-2016 13:41 12K 
[   ]EMT Job Announcement.pdf22-Nov-2016 13:41 344K 
[   ]Eaton.pdf22-Nov-2016 13:41 111K 
[   ]Ellsworth County Medical Center.pdf22-Nov-2016 13:41 102K 
[   ]Equipment Mechanic.pdf17-Jan-2019 16:17 206K 
[   ]Extra-board Firefighter.pdf22-Nov-2016 13:41 485K 
[   ]ExxonMobil.pdf22-Nov-2016 13:41 264K 
[   ]FC Case Mgr.pdf22-Nov-2016 13:41 148K 
[   ]FC Correct Off.pdf22-Nov-2016 13:41 149K 
[   ]Farmers New Accts rep.pdf22-Nov-2016 13:41 294K 
[   ]Field Engineer.pdf22-Nov-2016 13:41 419K 
[   ]Firefigher Flyer PDF.pdf08-Nov-2018 09:52 644K 
[   ]Full Time Position.pdf17-Jan-2019 16:17 201K 
[   ]Fuller Senior Accountant.pdf16-Oct-2017 10:28 148K 
[   ]Fuller_Project Specialist_2016.pdf22-Nov-2016 13:41 45K 
[   ]GB Tribune.pdf22-Nov-2016 13:41 454K 
[   ]GB regional.pdf22-Nov-2016 13:41 147K 
[   ]Golden Belt Feeders.pdf22-Nov-2016 13:41 170K 
[   ]Great Bend Industries.docx22-Nov-2016 13:41 3.4M 
[   ]Hamilton Co Hosp.pdf22-Nov-2016 13:41 171K 
[   ]Heartland Ag.pdf01-Feb-2018 08:30 343K 
[   ]Job-description-Scale Tech.pdf22-Nov-2016 13:41 23K 
[   ]Jomax-Payroll Clerk Job Description.pdf31-Aug-2018 15:51 309K 
[   ]KAKE Account Executive GB.pdf22-Nov-2016 13:41 153K 
[   ]KS Pathology.pdf22-Nov-2016 13:41 185K 
[   ]KS wetlands temp.pdf22-Nov-2016 13:41 221K 
[   ]Koch Help Desk .pdf06-Dec-2017 14:00 277K 
[   ]Laugh N' Learn.pdf22-Nov-2016 13:41 44K 
[   ]Lawrence PD.pdf22-Nov-2016 13:41 415K 
[   ]Life Enrichment Director.pdf22-Nov-2016 13:41 177K 
[   ]MLT Norton.pdf22-Nov-2016 13:41 128K 
[   ]MMTC - Kansas Recruitment Post.pdf25-Jul-2017 14:35 145K 
[   ]MPI F15.pdf22-Nov-2016 13:41 108K 
[   ]MPI ft and pt SP16.pdf22-Nov-2016 13:41 110K 
[   ]MPI security.pdf22-Nov-2016 13:41 108K 
[   ]Measurement -Technician Job Posting.pdf22-Nov-2016 13:41 95K 
[   ]Medical Billing .pdf13-Jul-2018 13:59 205K 
[   ]Mid Continent Controls Bench Technician .pdf22-Nov-2016 13:41 209K 
[   ]Mutual FAD F15.pdf22-Nov-2016 13:41 181K 
[   ]NNG1.pdf31-Aug-2018 08:29 916K 
[   ]NNG2.pdf31-Aug-2018 08:29 903K 
[   ]NORTHWESTERN ENERGY.pdf18-Jan-2018 10:26 175K 
[   ]Nestle USA - CDL B Route Sales Representative - Hays KS.pdf18-Jan-2019 13:37 657K 
[   ]NexTech systems Engineer.pdf22-Nov-2016 13:41 198K 
[   ]OCHC2017 Ad.pdf19-Jun-2017 07:48 518K 
[   ]OCHC RN and CNA.pdf23-Jan-2017 09:30 386K 
[   ]Ottawa County.pdf22-Nov-2016 13:41 110K 
[   ]Primus drafting tech.pdf22-Nov-2016 13:41 260K 
[   ]Programmer .pdf22-Nov-2016 13:41 202K 
[   ]Redbarn F16.pdf22-Nov-2016 13:41 887K 
[   ]Redbarn Manager_Company Trainer.pdf22-Nov-2016 13:41 222K 
[   ]Russell CPA Firm.pdf22-Nov-2016 13:41 132K 
[   ]Safety Manager.pdf29-May-2018 07:00 114K 
[   ]ScribeAmerica.pdf22-Nov-2016 13:41 39K 
[   ]Service Coordinator.pdf22-Nov-2016 13:41 421K 
[   ]Smith County Memorial.pdf22-Nov-2016 13:41 81K 
[   ]Sunflower Div Accounting Clerk.pdf22-Nov-2016 13:41 91K 
[   ]Superior Essex Summer.pdf04-May-2018 08:42 32K 
[   ]TSA PT Flyer.pdf22-Nov-2016 13:41 616K 
[   ]Viaro wireless.pdf22-Nov-2016 13:41 249K 
[   ]Watco conductor engineer.pdf22-Nov-2016 13:41 112K 
[   ]Wheatridge.pdf22-Nov-2016 13:41 186K 
[   ]accounting-coordinator0115.pdf22-Nov-2016 13:41 74K 
[   ]ad-mechanical-designer.pdf22-Nov-2016 13:41 69K 
[   ]adminassistant-gb.pdf22-Nov-2016 13:41 273K 
[   ]asst-tech-specialist.pdf22-Nov-2016 13:41 4.4K 
[   ]at-and-t.pdf22-Nov-2016 13:41 192K 
[   ]axtell-clinic-lpn.pdf22-Nov-2016 13:41 204K 
[   ]barton-fsa-temp.pdf22-Nov-2016 13:41 72K 
[   ]career-center-employer-web-post-request-form2014.pdf22-Nov-2016 13:41 188K 
[   ]cdi-hs-south-central-kansas-job-advertisement.pdf22-Nov-2016 13:41 176K 
[   ]certified-coder020314.pdf22-Nov-2016 13:41 32K 
[   ]cnc-ii.pdf22-Nov-2016 13:41 256K 
[   ]controls-technician.pdf22-Nov-2016 13:41 49K 
[   ]ellsworth childcare director.pdf22-Nov-2016 13:41 179K 
[   ]finadvmutualomaha.pdf22-Nov-2016 13:41 188K 
[   ]firefighter.pdf22-Nov-2016 13:41 2.0M 
[   ]full-time-farmhand.pdf22-Nov-2016 13:41 107K 
[   ]gbi5-22.pdf22-Nov-2016 13:41 205K 
[   ]insurance-agent-opportunity.pdf22-Nov-2016 13:41 66K 
[   ]job-flier-just-farm.pdf22-Nov-2016 13:41 93K 
[   ]konzaprairiechc.pdf22-Nov-2016 13:41 454K 
[   ]ks-corporate-security-officer.pdf22-Nov-2016 13:41 130K 
[   ]kstate ext 2017.pdf08-Mar-2017 13:38 108K 
[   ]lang-diesel.pdf22-Nov-2016 13:41 334K 
[   ]larned-state-hospitol-rns-lpns.pdf22-Nov-2016 13:41 211K 
[   ]lincoln-ne-police.pdf22-Nov-2016 13:41 50K 
[   ]maico-industries.pdf11-Jan-2019 12:45 61K 
[   ]medtechcnas-12-04-13-2.pdf22-Nov-2016 13:41 72K 
[   ]medtechcnas-12-04-13.pdf22-Nov-2016 13:41 72K 
[   ]missouri-med-positions.pdf22-Nov-2016 13:41 92K 
[   ]mutualofomaha.pdf22-Nov-2016 13:41 175K 
[   ]northern-natural-gas.pdf22-Nov-2016 13:41 122K 
[   ]operation-specialist-job-post.pdf22-Nov-2016 13:41 100K 
[   ]paraprofessional-boy-scouts-public-post.pdf22-Nov-2016 13:41 220K 
[   ]preschool-teacher-hays.pdf22-Nov-2016 13:41 143K 
[   ]quality-renovations.pdf22-Nov-2016 13:41 100K 
[   ]scan.pdf22-Nov-2016 13:41 50K 
[   ]scotts-lawncare.pdf22-Nov-2016 13:41 62K 
[   ]solidworks-drafter.pdf22-Nov-2016 13:41 27K 
[   ]sundivfa14.pdf22-Nov-2016 13:41 35K 
[   ]tcmfgaccountclerk.pdf22-Nov-2016 13:41 31K 
[   ]weathercraft.pdf22-Nov-2016 13:41 139K 
[   ]wilson-telephone-company-inc.pdf22-Nov-2016 13:41 98K 

Apache/2.2.15 (Red Hat) Server at docs.bartonccc.edu Port 443